Location: Maccacari
(45.1333°N, 11.1333°E)
Time: 15:13:08
(UTC+00:00)

S-56A Canister/Altair - Pass Details

Date: 26 January 2021
Orbit: 631 x 2501 km, 38.9° (Epoch: 01 March)

Event Time Altitude Azimuth Distance (km) Brightness Sun altitude
Rises 06:05:19 0° 266° (W) 3,024 - -6.8°
Exits shadow 06:06:25 - 260° (W) 2,672 9.8 -6.6°
Reaches altitude 10° 06:08:02 10° 248° (WSW) 2,234 9.5 -6.3°
Maximum altitude 06:11:40 19° 202° (SSW) 1,881 9.5 -5.7°
Drops below altitude 10° 06:16:05 10° 159° (SSE) 2,801 11.1 -5.0°
Sets 06:20:03 0° 144° (SE) 4,100 12.4 -4.4°
